Temperature
18 18 18 18 18 18 18 17 17 17 18 18 18 18 18 18 18 18 18 18 17 17 17 17 17 16 16 16 16 16 15 15 15 15 15 14 14 14 14 14 14 14 14
17 18 17 17 17 17 17 17 17 17 17 17 18 18 18 18 18 18 18 18 17 17 17 17 16 16 16 16 16 15 15 15 15 15 14 14 14 14 14 14 13 13 13
17 17 17 17 17 17 17 17 17 17 17 17 17 17 18 18 18 18 18 17 17 17 16 16 16 16 16 16 15 15 15 15 15 14 14 14 14 14 13 13 13 13 13
16 16 16 17 17 17 17 17 17 17 17 17 17 17 17 17 17 17 17 17 17 16 16 16 16 16 16 16 15 15 15 15 15 14 14 14 13 13 13 13 13 13 13
15 16 16 16 16 16 17 17 17 17 17 17 17 17 17 17 17 17 17 16 16 16 16 16 16 16 16 15 15 15 15 14 14 14 14 13 13 13 13 13 12 12 12
15 15 15 16 16 16 16 16 16 16 17 17 17 17 17 17 17 17 16 16 16 16 16 16 16 16 15 15 15 15 14 14 14 14 14 13 13 12 12 12 12 12 12
15 15 15 15 15 16 16 16 16 16 16 16 16 16 16 16 16 16 16 16 16 16 16 16 16 15 15 15 14 14 14 14 14 14 13 13 12 12 12 12 11 12 11
14 14 14 15 15 15 15 16 16 16 16 16 16 16 16 16 16 16 16 16 15 15 15 15 15 15 15 14 14 14 14 14 14 13 13 12 12 12 12 12 11 11 11
14 14 14 14 14 15 15 15 15 15 15 16 16 16 16 16 16 16 15 15 15 15 15 15 15 15 14 14 14 14 14 14 13 13 13 12 12 12 12 12 11 11 11
13 13 14 14 14 14 14 15 15 15 15 15 15 15 15 15 15 15 15 15 15 15 15 15 15 15 14 14 14 14 14 13 13 13 12 12 12 12 11 11 11 11 11
12 13 13 13 14 14 14 14 14 14 15 15 15 15 15 15 15 15 15 15 15 15 15 15 14 14 14 14 14 14 13 13 13 12 12 12 12 11 11 11 11 11 11
12 12 12 13 13 13 14 14 14 14 14 14 14 14 15 15 15 15 15 15 15 15 14 14 14 14 14 13 13 13 13 13 13 12 12 12 11 11 11 11 11 10 10
10 11 11 12 12 13 13 13 13 13 13 14 14 14 14 14 14 14 14 14 14 14 14 14 14 13 13 13 13 13 13 13 12 12 12 11 11 11 11 10 10 10 10
9 10 11 11 11 12 12 12 13 13 13 13 13 14 14 14 14 14 14 14 14 14 14 14 14 13 13 13 13 13 13 13 12 12 12 11 11 11 10 10 10 10 10
9 10 10 10 11 11 11 12 12 12 12 13 13 13 13 13 14 14 14 14 14 14 14 14 14 13 13 13 13 12 12 12 12 12 12 11 11 11 10 10 10 10 10
8 9 9 10 10 10 11 11 12 12 12 12 12 13 13 13 13 13 13 13 13 13 13 14 13 13 13 13 12 12 12 12 12 12 11 11 11 11 10 10 10 10 9
8 8 9 9 9 9 10 10 11 11 11 11 12 12 12 12 12 13 13 13 13 13 13 13 13 13 12 12 12 12 12 12 12 11 11 11 11 10 10 10 10 10 9
7 7 8 8 8 9 9 9 10 10 10 11 11 11 12 12 12 12 12 12 13 13 13 12 12 12 12 12 12 12 12 11 11 11 11 11 11 10 10 10 10 10 9
6 7 7 8 8 8 8 9 9 9 10 10 10 10 11 11 11 11 12 12 12 12 12 12 12 12 12 12 11 11 11 11 11 11 11 11 11 10 10 10 10 10 9
6 6 7 7 7 8 8 8 8 9 9 9 10 10 10 10 11 11 11 11 12 12 12 12 12 11 11 11 11 11 11 11 11 11 11 10 10 10 10 10 10 10 10
6 6 6 6 7 7 7 7 8 8 9 9 9 9 9 10 10 10 10 10 11 11 11 11 11 11 10 10 10 10 10 10 10 10 10 10 10 10 10 10 10 10 10
6 6 6 6 6 6 6 7 7 8 8 8 9 9 9 9 9 9 10 10 10 11 11 11 11 10 10 10 10 9 9 9 10 10 10 10 10 10 10 10 10 10 10
5 5 5 6 6 6 6 6 7 7 7 8 8 8 9 9 9 9 9 9 10 10 10 11 10 10 10 10 10 10 9 9 10 10 10 10 10 10 10 10 10 10 10
5 5 5 5 5 5 6 6 6 6 7 7 8 8 8 8 9 9 9 9 9 10 10 10 10 10 10 9 9 10 11 11 10 10 10 10 10 10 10 10 10 10 10
4 4 4 5 5 5 5 6 6 6 6 7 7 7 8 8 8 9 9 9 9 9 10 10 10 10 10 10 10 10 10 11 11 11 10 10 10 10 10 10 10 10 10
4 4 4 4 5 5 5 5 6 6 6 6 7 7 7 7 8 8 8 9 9 9 9 10 10 10 10 10 10 10 10 10 11 11 11 10 10 10 10 10 10 10 10
Wind_Speed
6 7 6 3 3 6 8 9 10 10 11 13 15 16 18 19 20 20 19 18 17 17 16 16 16 16 15 15 15 14 13 13 13 13 13 13 13 13 13 13 13 12 14
7 7 5 3 2 5 7 8 9 10 10 12 14 15 17 18 19 20 19 19 18 17 17 16 16 16 16 15 14 14 13 13 13 13 12 12 13 13 13 13 12 11 13
7 7 6 5 2 3 6 7 8 8 10 11 13 14 16 17 18 19 19 19 18 17 17 16 16 16 16 15 15 14 14 13 13 13 12 10 11 12 13 12 12 13 13
8 9 8 8 4 2 4 6 7 8 9 10 12 14 15 17 18 19 19 19 18 17 17 17 16 16 16 15 15 15 14 14 13 12 10 9 9 11 12 12 12 13 13
9 10 10 9 7 4 3 5 7 8 8 9 11 13 15 17 18 18 18 18 18 18 17 17 17 17 16 16 15 15 15 14 13 11 9 8 7 11 12 12 12 12 12
9 11 10 10 8 5 4 3 5 7 8 9 10 12 13 16 17 18 18 18 18 18 18 18 17 17 17 16 16 16 15 14 13 11 9 7 7 10 11 12 12 12 12
9 10 11 10 9 6 5 4 5 7 7 8 10 11 13 13 16 18 18 18 19 19 18 18 18 18 18 17 17 16 16 15 12 10 8 7 7 10 12 11 11 12 11
8 8 10 10 10 8 6 6 5 6 8 8 9 11 12 13 13 16 18 19 19 19 19 19 19 19 18 18 17 17 16 15 12 10 8 7 8 10 12 11 11 10 10
7 7 8 9 8 8 8 7 6 6 8 9 9 10 11 13 13 14 16 18 19 20 20 20 20 20 19 19 18 17 16 15 12 9 8 7 9 11 11 10 10 9 9
7 7 6 8 7 6 7 7 7 7 7 10 10 9 10 11 13 14 14 16 18 19 20 20 20 20 20 19 18 17 16 14 11 10 8 8 9 10 11 11 9 9 8
10 8 7 6 6 5 6 7 6 6 6 7 8 8 7 8 9 11 12 15 17 18 20 21 21 20 20 19 19 17 15 12 11 9 8 9 10 10 11 10 9 8 8
12 11 7 6 6 5 5 5 4 5 4 5 5 6 6 6 7 8 10 13 16 17 18 20 20 19 16 14 16 16 12 12 10 8 9 11 11 11 11 10 9 8 8
11 11 9 7 6 5 3 3 2 3 3 4 4 5 5 4 4 6 6 9 11 13 12 14 14 12 12 11 11 11 11 11 9 9 10 12 12 11 11 11 10 9 9
11 11 9 7 6 6 4 4 3 2 3 3 3 5 4 4 4 4 5 5 7 8 7 8 7 10 11 12 12 11 11 9 9 9 10 12 12 12 11 11 10 10 9
11 11 10 8 7 7 6 4 4 4 4 4 4 5 5 5 6 5 5 6 6 7 8 7 7 9 9 10 10 11 10 10 10 10 10 12 13 12 12 12 11 10 9
11 11 10 9 8 7 7 6 5 4 4 4 5 5 6 6 7 6 6 5 6 8 9 8 9 8 8 8 9 10 10 10 10 10 10 11 12 12 12 11 11 11 10
11 11 10 9 8 7 8 8 6 5 4 5 6 6 7 7 8 8 7 6 6 8 9 8 8 7 7 7 9 9 8 9 9 10 10 10 10 11 11 12 11 11 10
10 10 10 9 8 8 8 7 6 5 6 6 6 6 8 9 9 8 8 8 7 7 8 9 8 8 8 8 8 8 7 7 8 9 9 9 9 9 11 12 11 11 11
10 10 9 8 8 9 8 7 7 7 7 6 6 7 8 9 10 8 8 8 8 7 8 9 8 7 8 8 8 7 7 7 7 8 8 9 10 10 10 11 11 11 11
9 9 9 9 8 8 7 6 5 6 6 6 7 8 9 8 10 9 8 9 9 7 8 9 10 8 7 8 7 6 5 6 6 7 8 8 9 10 11 10 10 10 11
9 9 9 9 8 6 5 4 5 6 5 6 7 9 10 10 10 9 8 9 9 9 11 11 8 10 7 6 5 3 1 3 6 6 6 6 7 9 10 10 10 10 10
9 10 9 8 8 7 6 5 5 6 6 7 6 8 10 11 11 10 10 10 10 9 11 12 10 8 7 8 6 6 4 3 5 6 6 7 8 6 7 9 10 10 10
10 10 10 9 9 8 6 5 5 5 5 5 6 7 9 11 12 12 11 11 11 11 12 13 13 12 10 8 7 6 6 6 3 3 6 7 7 6 7 7 9 11 11
11 10 10 9 9 8 6 5 6 7 8 8 7 7 8 11 12 12 11 11 11 11 12 14 13 10 13 11 7 4 3 5 5 3 3 5 7 8 8 7 7 9 11
10 10 9 9 9 8 7 6 6 8 8 7 6 8 8 9 12 12 11 10 11 11 12 13 13 12 12 12 9 5 3 2 3 4 5 5 4 6 7 7 6 7 10
10 10 10 10 10 9 8 7 7 9 10 9 8 8 8 7 9 12 11 10 11 10 12 12 13 15 13 12 10 8 7 6 6 5 5 6 5 4 5 5 6 7 8
Wind_Direction
318 321 309 284 200 184 181 176 174 168 166 163 161 160 159 159 159 156 156 155 152 150 149 146 144 141 138 137 135 133 130 126 122 120 119 116 113 110 108 103 101 99 100
311 324 317 314 236 190 184 185 178 174 170 169 167 165 163 162 161 160 159 158 156 154 152 150 148 144 141 139 136 132 128 125 121 117 115 116 118 115 114 111 109 108 104
340 342 331 328 312 212 193 186 187 181 177 175 174 172 169 167 165 164 163 161 159 157 155 152 149 147 144 142 138 135 132 127 122 116 110 107 118 121 119 116 113 109 108
348 350 342 338 315 273 215 196 191 190 186 184 180 179 176 174 171 169 169 167 164 162 158 156 153 149 147 145 142 139 136 132 125 118 107 109 118 125 122 119 117 114 111
351 354 349 343 329 295 263 217 204 197 194 192 190 186 184 181 179 176 174 171 168 166 162 160 156 153 151 149 147 143 138 133 126 116 110 112 119 127 124 122 121 116 114
346 345 347 348 342 324 293 255 215 203 200 198 196 195 191 189 186 184 180 176 171 169 166 163 161 158 157 155 153 147 141 133 125 118 117 119 123 132 127 124 123 119 116
338 340 341 341 336 330 317 292 248 218 208 206 204 202 197 193 191 187 184 180 175 173 170 168 166 164 162 160 156 151 144 138 130 127 128 131 138 139 134 130 129 125 119
329 330 333 331 334 326 315 302 290 243 222 217 214 210 204 198 193 191 189 184 180 177 174 172 171 168 167 163 159 155 150 144 140 137 140 149 153 146 140 135 135 129 126
330 327 331 325 321 325 321 307 297 280 242 227 224 219 210 203 198 195 193 188 184 183 179 177 175 172 171 166 161 158 155 150 146 147 153 164 164 153 145 141 140 138 135
328 330 326 324 317 318 317 313 300 300 278 243 229 226 221 208 203 199 193 191 188 187 184 182 179 176 173 169 164 160 157 152 151 154 160 171 168 159 153 149 148 147 144
325 325 317 322 313 311 314 313 308 296 297 267 235 227 222 214 203 201 196 194 191 190 188 186 183 179 174 171 166 160 155 156 157 160 171 178 174 167 157 155 155 155 152
318 316 315 316 315 301 305 312 303 291 287 282 249 225 220 215 207 201 197 195 193 190 189 188 185 180 172 165 164 158 157 159 162 168 180 184 182 177 167 163 163 165 163
302 307 311 310 313 300 279 284 297 297 280 279 267 237 221 208 202 193 191 191 190 188 185 183 182 173 166 161 160 161 161 163 168 177 187 189 189 186 178 173 174 175 171
303 300 303 306 310 301 281 262 253 261 264 255 261 248 216 206 199 197 197 195 191 185 181 172 171 167 167 168 167 166 166 168 174 181 192 195 194 192 186 182 180 180 179
296 298 299 301 299 302 290 266 261 240 247 251 249 246 223 209 205 200 203 197 194 187 182 177 175 175 174 173 174 173 174 176 179 184 193 199 198 198 193 191 189 191 192
297 295 294 295 289 293 291 271 254 242 242 249 243 243 232 215 208 202 203 205 199 191 187 183 181 178 181 178 180 181 180 179 182 186 192 200 200 199 200 200 200 202 202
295 291 288 288 283 284 286 273 259 245 239 241 248 239 236 224 212 204 202 204 205 193 187 182 181 177 178 181 183 183 183 182 183 189 193 196 200 202 205 208 210 211 211
299 293 288 287 287 282 274 270 262 249 238 237 243 237 234 229 215 206 206 205 201 195 189 187 184 185 181 183 185 186 185 185 187 190 193 196 197 203 210 214 218 220 220
297 293 293 293 288 285 273 264 258 248 239 238 240 235 230 230 218 211 211 206 194 202 197 192 188 186 185 183 185 185 186 190 191 191 195 197 199 202 208 215 218 223 227
298 298 294 295 287 281 278 268 261 249 241 237 236 231 226 230 220 213 215 206 195 203 202 192 187 186 187 179 179 183 187 194 193 196 199 199 201 203 206 211 216 221 226
309 306 296 295 295 290 283 266 259 255 245 238 235 230 223 224 218 211 219 209 202 206 208 194 188 181 184 168 160 165 188 201 206 205 200 198 203 206 205 209 212 217 224
314 308 303 299 296 285 273 262 252 260 249 241 240 233 225 223 217 215 216 214 208 208 209 198 183 182 184 178 172 160 173 215 225 211 203 203 205 200 205 210 210 213 218
315 308 306 304 298 289 279 278 274 270 262 250 246 239 228 225 218 212 215 218 214 207 208 201 191 185 185 190 191 177 172 198 193 207 209 207 203 201 206 208 211 215 218
308 309 305 301 297 294 286 276 265 259 260 254 244 242 236 225 219 216 212 215 217 214 206 202 198 192 183 188 196 209 192 155 160 177 209 210 207 208 208 206 210 215 217
307 309 306 304 307 305 297 282 273 265 263 260 244 238 235 231 221 217 212 212 216 217 209 202 199 194 192 191 190 185 182 169 155 156 184 196 209 216 211 208 206 211 215
313 313 312 313 312 307 299 292 275 270 268 260 249 242 239 235 225 216 213 211 214 216 211 207 203 198 197 194 193 190 185 180 179 166 175 186 200 212 207 208 206 208 209
Height
1484 1483 1482 1482 1483 1484 1485 1486 1488 1489 1491 1493 1494 1496 1497 1499 1500 1502 1503 1505 1506 1508 1509 1510 1511 1512 1513 1514 1515 1516 1516 1517 1518 1518 1519 1519 1520 1520 1521 1521 1522 1522 1522
1484 1483 1482 1482 1483 1484 1485 1486 1488 1489 1491 1493 1494 1496 1497 1499 1500 1501 1503 1505 1506 1507 1509 1510 1511 1512 1513 1514 1515 1516 1516 1517 1518 1519 1519 1519 1520 1520 1521 1522 1522 1522 1523
1483 1483 1482 1483 1483 1484 1485 1486 1487 1489 1491 1492 1494 1495 1497 1498 1500 1501 1502 1504 1505 1507 1508 1509 1511 1512 1512 1513 1514 1515 1516 1517 1518 1519 1519 1520 1520 1521 1521 1522 1523 1523 1523
1483 1482 1482 1483 1483 1483 1485 1486 1487 1488 1490 1491 1493 1495 1496 1498 1499 1500 1502 1503 1504 1506 1507 1509 1510 1511 1512 1513 1514 1515 1516 1517 1518 1519 1519 1520 1520 1521 1522 1522 1523 1523 1523
1483 1482 1482 1482 1482 1483 1484 1485 1486 1487 1489 1490 1492 1493 1495 1496 1498 1499 1501 1502 1503 1505 1506 1508 1509 1510 1511 1512 1513 1514 1515 1516 1517 1518 1519 1520 1521 1521 1522 1522 1523 1523 1523
1482 1482 1481 1481 1481 1482 1482 1483 1485 1486 1487 1489 1490 1492 1493 1495 1496 1498 1499 1500 1502 1503 1505 1506 1507 1509 1510 1511 1513 1514 1515 1516 1517 1518 1519 1520 1520 1521 1522 1522 1523 1523 1524
1480 1480 1480 1480 1479 1480 1480 1481 1483 1484 1485 1487 1488 1489 1491 1492 1494 1495 1497 1499 1500 1501 1503 1504 1506 1507 1509 1510 1512 1513 1514 1515 1516 1517 1518 1519 1520 1521 1521 1522 1523 1524 1524
1478 1478 1478 1478 1478 1477 1478 1479 1480 1481 1483 1484 1485 1487 1488 1490 1491 1493 1495 1497 1498 1500 1501 1502 1504 1506 1507 1509 1510 1511 1513 1514 1516 1517 1518 1519 1520 1521 1521 1522 1523 1523 1524
1476 1475 1475 1475 1475 1475 1475 1476 1477 1478 1479 1481 1482 1484 1485 1487 1488 1490 1492 1494 1495 1497 1499 1500 1502 1504 1505 1507 1509 1510 1512 1513 1515 1516 1517 1518 1519 1520 1521 1521 1522 1523 1523
1473 1472 1472 1472 1472 1472 1471 1472 1473 1474 1475 1477 1479 1480 1482 1483 1485 1487 1489 1490 1492 1494 1496 1498 1500 1502 1503 1505 1506 1508 1510 1512 1513 1515 1516 1517 1518 1519 1520 1521 1522 1522 1522
1468 1468 1468 1467 1468 1468 1468 1468 1469 1470 1471 1473 1474 1476 1478 1479 1481 1483 1485 1487 1489 1491 1493 1495 1497 1499 1501 1503 1504 1506 1508 1510 1512 1513 1515 1516 1517 1518 1519 1520 1521 1521 1522
1462 1463 1463 1462 1462 1463 1463 1463 1464 1465 1466 1468 1470 1471 1473 1475 1477 1479 1481 1483 1485 1487 1490 1492 1494 1497 1498 1500 1501 1504 1506 1508 1510 1511 1513 1515 1516 1517 1518 1519 1519 1520 1521
1459 1458 1458 1457 1457 1457 1458 1458 1459 1460 1461 1463 1464 1466 1468 1470 1472 1474 1476 1479 1481 1483 1485 1488 1490 1492 1494 1496 1498 1501 1503 1505 1507 1509 1511 1513 1514 1516 1517 1517 1518 1519 1519
1455 1453 1453 1452 1451 1451 1452 1452 1453 1454 1455 1457 1458 1461 1462 1464 1466 1468 1471 1473 1476 1478 1481 1483 1485 1488 1491 1493 1495 1498 1500 1502 1505 1507 1509 1511 1512 1514 1515 1516 1517 1517 1518
1450 1448 1448 1446 1446 1445 1446 1446 1447 1448 1449 1451 1453 1454 1456 1458 1460 1462 1465 1468 1470 1473 1475 1478 1481 1484 1486 1489 1492 1494 1497 1499 1502 1504 1506 1508 1510 1512 1513 1514 1515 1516 1516
1445 1443 1442 1441 1441 1440 1439 1440 1441 1442 1443 1444 1446 1448 1450 1452 1454 1456 1459 1461 1465 1468 1471 1473 1476 1479 1482 1485 1488 1491 1493 1496 1498 1501 1503 1505 1507 1509 1510 1512 1513 1514 1515
1440 1438 1437 1436 1435 1434 1433 1434 1434 1435 1436 1438 1439 1442 1444 1445 1447 1449 1452 1455 1459 1462 1465 1468 1471 1474 1477 1480 1483 1486 1489 1492 1495 1497 1500 1502 1504 1506 1507 1509 1510 1511 1512
1436 1434 1431 1430 1429 1428 1427 1427 1427 1428 1429 1431 1432 1435 1437 1439 1441 1443 1445 1448 1452 1456 1459 1462 1465 1468 1472 1475 1478 1482 1485 1488 1491 1493 1496 1498 1500 1502 1504 1506 1507 1509 1510
1431 1429 1426 1424 1423 1422 1421 1421 1421 1422 1423 1424 1425 1427 1429 1431 1434 1436 1438 1441 1445 1449 1452 1455 1459 1463 1466 1470 1474 1478 1481 1484 1487 1489 1491 1494 1496 1499 1501 1503 1504 1506 1506
1427 1423 1420 1419 1417 1416 1414 1414 1414 1415 1416 1417 1418 1420 1422 1424 1426 1428 1431 1434 1438 1441 1445 1448 1452 1457 1461 1465 1469 1473 1476 1480 1482 1484 1487 1490 1492 1495 1497 1499 1501 1502 1503
1421 1419 1417 1414 1411 1410 1408 1407 1407 1408 1408 1410 1411 1412 1414 1417 1419 1422 1424 1427 1430 1434 1438 1441 1445 1450 1455 1461 1465 1468 1472 1475 1477 1480 1482 1485 1487 1490 1493 1495 1497 1498 1500
1416 1413 1410 1408 1406 1404 1403 1401 1401 1401 1402 1403 1403 1405 1407 1409 1411 1414 1416 1420 1423 1426 1430 1435 1438 1443 1448 1454 1458 1462 1466 1470 1471 1474 1477 1479 1482 1485 1488 1491 1493 1495 1496
1413 1410 1407 1404 1401 1399 1398 1396 1395 1396 1395 1396 1396 1397 1398 1401 1404 1407 1409 1413 1416 1419 1422 1426 1430 1435 1440 1447 1453 1455 1458 1459 1464 1468 1470 1474 1477 1480 1483 1486 1488 1491 1493
1410 1406 1403 1400 1397 1394 1393 1392 1390 1389 1388 1388 1389 1390 1391 1393 1396 1399 1402 1405 1409 1412 1414 1418 1423 1428 1433 1438 1445 1448 1451 1451 1456 1460 1465 1468 1472 1475 1478 1481 1484 1486 1488
1407 1402 1398 1394 1391 1388 1386 1385 1384 1383 1382 1382 1383 1384 1385 1386 1388 1391 1394 1398 1401 1405 1407 1411 1415 1421 1425 1430 1435 1440 1444 1446 1449 1452 1456 1462 1466 1469 1473 1476 1479 1481 1484
1402 1398 1393 1389 1386 1384 1382 1380 1378 1377 1376 1375 1376 1377 1377 1378 1380 1383 1386 1390 1393 1398 1400 1404 1408 1414 1418 1423 1428 1432 1436 1439 1442 1445 1449 1454 1460 1464 1468 1471 1473 1476 1479